Regional Weather Roundup
Issued by NWS Sioux Falls, SD

Home | Current Version | Previous Version | Graphics & Text | Print | Product List | Glossary Off
Versions: 1 2 3 4 5 6 7 8 9 10 11 12 13 14 15 16 17 18 19 20 21 22 23 24 25 26 27 28 29 30 31 32 33 34 35 36 37 38 39 40 41 42 43 44 45 46 47 48 49 50

000
ASUS43 KFSD 230810
RWRFSD

WEATHER ROUNDUP FOR SE SOUTH DAKOTA/SW MINNESOTA/NW IOWA
NATIONAL WEATHER SERVICE SIOUX FALLS SD
300 AM CDT FRI JUN 23 2017

NOTE: "FAIR" INDICATES FEW OR NO CLOUDS BELOW 12,000 FEET WITH NO
SIGNIFICANT WEATHER AND OR OBSTRUCTIONS TO VISIBILITY.


SDZ038>040-050-052>070-230900-
SOUTHEAST SOUTH DAKOTA

CITY           SKY/WX    TMP DP  RH WIND       PRES   REMARKS
BROOKINGS      CLEAR     58  50  75 W10       29.85S
CHAMBERLAIN    CLEAR     63  42  47 NW17G25   29.96R
HURON          CLEAR     54  47  77 NW9       29.90R
MADISON        FAIR      57  48  72 W10       29.87S
MITCHELL       CLEAR     58  47  66 NW12      29.90R
SIOUX FALLS    CLEAR     57  51  80 NW7       29.84F
WINNER         FAIR      57  40  52 NW5       30.00R
YANKTON        CLEAR     59  50  72 SW8       29.87S
$$

MNZ071-072-080-081-089-090-097-098-230900-
SOUTHWEST MINNESOTA

CITY           SKY/WX    TMP DP  RH WIND       PRES   REMARKS
FAIRMONT       CLEAR     57  53  86 CALM      29.80F
JACKSON        CLEAR     54  50  87 CALM      29.83S
LUVERNE        CLEAR     54  48  82 NW3       29.85S
MARSHALL       CLEAR     62  54  74 W14       29.80F
MONTEVIDEO     CLEAR     59  55  88 N5        29.79R
PIPESTONE      CLEAR     55  50  82 W6        29.84S
REDWOOD FALLS  CLEAR     60  54  80 W9        29.77S
TRACY          CLEAR     62  54  74 W8        29.81S
WINDOM         CLEAR     55  52  88 SW6       29.82S
WORTHINGTON    CLEAR     55  51  86 W7        29.84S
$$

IAZ001>003-012>014-020>022-031-032-NEZ013-014-SDZ071-230900-
NORTHWEST IOWA

CITY           SKY/WX    TMP DP  RH WIND       PRES   REMARKS
CHEROKEE       CLEAR     54  54  99 CALM      29.84S
DENISON        MOCLDY    63  55  77 CALM      29.84F
ESTHERVILLE    CLEAR     55  54  96 W7        29.80F
LE MARS        CLEAR     55  52  88 CALM      29.85S
ORANGE CITY    CLEAR     55  52  88 NW5       29.84F
SHELDON        CLEAR     52  52 100 NW3       29.82F
SIOUX CITY       N/A    N/A N/A N/A MISG      29.84F
SPENCER        CLEAR     53  51  93 W6        29.82F
STORM LAKE     CLEAR     59  50  72 NW7       29.83F
$$

ABBREVIATIONS USED IN REMARKS
   TC - TEMPERATURE IN CELSIUS
  WCI - WIND CHILL INDEX
   HX - HEAT INDEX
  VSB - VISIBILITY





USA.gov is the U.S. government's official web portal to all federal, state and local government web resources and services.